Location: Austin
(30.3000°N, 97.7500°W)
Time: 06:26:36
(UTC-05:00)

Hubble Space Telescope - Pass Details

Date: 19 September 2023
Orbit: 522 x 525 km, 28.5° (Epoch: 25 September)

Event Time Altitude Azimuth Distance (km) Brightness Sun altitude
Exits shadow 06:32:59 14° 250° (WSW) 1,504 2.4 -10.4°
Maximum altitude 06:36:19 59° 173° (S) 602 1.0 -9.7°
Drops below altitude 10° 06:40:18 10° 93° (E) 1,750 5.0 -8.9°
Sets 06:42:34 0° 89° (E) 2,639 6.7 -8.4°
